(2020 XU6) |
Classification: Apollo [NEO, PHA] SPK-ID: 54100581 |
[ hide orbit diagram ]
For accurate long-term ephemerides, please instead use our Horizons system.This orbit viewer was implemented using two-body methods, and hence should not be used for determining accurate long-term trajectories (over several years or decades) or planetary encounter circumstances.
Orbital Elements at Epoch 2459200.5 (2020-Dec-17.0) TDB
Reference: JPL 50 (heliocentric ecliptic J2000)
Element | Value | Uncertainty (1-sigma) | Units |
e | .5523523665203919 | 1.4293e-05 | |
a | 2.217801272780212 | 7.0915e-05 | au |
q | .9927934912881248 | 6.9158e-08 | au |
i | 3.879785901228638 | 6.8616e-05 | deg |
node | 164.499443004591 | 7.988e-05 | deg |
peri | 6.136594134459725 | 3.9347e-05 | deg |
M | 336.0204304869789 | 0.0011505 | deg |
tp | 2459280.856544137024 (2021-Mar-07.35654414) | 1.4699e-05 | TDB |
period | 1206.375113348903 3.30 | 0.057861 0.0001584 | d yr |
n | .2984146440161869 | 1.4313e-05 | deg/d |
Q | 3.442809054272299 | 0.00011008 | au |
|
| | Orbit Determination Parameters
Additional Information
|
[ show covariance matrix ]
Physical Parameter Table
Parameter |
Symbol |
Value |
Units |
Sigma |
Reference |
Notes |
absolute magnitude |
H |
21.1 |
|
.39514 |
E2021-DA1 |
autocmod 2.8 |
|
[ show close-approach data ]
|